Change the Weather History Date:

Sunday, September 7, 2014

  Actual Average Record
Temperature  
Mean Temperature 79 °F -  
Max Temperature 85 °F 88 °F 97 °F (1983)
Min Temperature 73 °F 68 °F 59 °F (2011)
Cooling Degree Days 14    
Growing Degree Days 29 (Base 50)    
Moisture  
Dew Point 73 °F    
Average Humidity 87    
Maximum Humidity 100    
Minimum Humidity 66    
Precipitation  
Precipitation 0.00 in - - ()
Sea Level Pressure  
Sea Level Pressure 29.96 in    
Wind  
Wind Speed 3 mph (SSW)    
Max Wind Speed 8 mph    
Max Gust Speed -    
Visibility 10 miles    
Events Rain    
Averages and records for this station are not official NWS values.
T = Trace of Precipitation, MM = Missing Value Source: NWS Daily Summary

Daily Weather History Graph

Daily Weather History Graph

Search for Another Location

Airport or City:

Trip Planner

Search our weather history database for the weather conditions in past years. The results will help you decide how hot, cold, wet, or windy it might be!

Date:

Astronomy

Sep. 07, 2014 Rise Set
Actual Time 7:05 AM EDT 7:42 PM EDT
Civil Twilight 6:40 AM EDT 8:07 PM EDT
Nautical Twilight 6:11 AM EDT 8:36 PM EDT
Astronomical Twilight 5:42 AM EDT 9:05 PM EDT
Moon 6:39 PM EDT (9/7) 5:20 AM EDT (9/7)
Length of Visible Light 13h 26m
Length of Day
12h 37m
Waxing Gibbous, 97% of the Moon is Illuminated
Sep 7
Waxing Gibbous
Sep 8
Full
Sep 15
Last Quarter
Sep 24
New
Oct 1
First Quarter

Hourly Weather History & Observations

Time (EDT) Temp. Heat Index Dew Point Humidity Pressure Visibility Wind Dir Wind Speed Gust Speed Precip Events Conditions
12:03 AM 77.0 °F - 71.6 °F 83% 29.99 in 10.0 mi Calm Calm - N/A   Overcast
12:08 AM 77.0 °F - 71.6 °F 83% 29.99 in 10.0 mi Calm Calm - N/A   Overcast
12:26 AM 77.0 °F - 71.6 °F 83% 29.98 in 10.0 mi WNW 1.2 mph - N/A   Light Drizzle
12:58 AM 75.9 °F - 72.5 °F 89% 29.98 in 10.0 mi West 4.6 mph - 0.00 in Rain Light Rain
1:10 AM 75.2 °F - 73.4 °F 94% 29.96 in 10.0 mi SW 3.5 mph - N/A   Partly Cloudy
1:12 AM 75.2 °F - 73.4 °F 94% 29.96 in 10.0 mi SW 3.5 mph - N/A   Light Drizzle
1:42 AM 75.2 °F - 73.4 °F 94% 29.95 in 10.0 mi Variable 2.3 mph - N/A   Light Drizzle
1:58 AM 75.7 °F - 73.6 °F 93% 29.96 in 10.0 mi SSW 3.5 mph - 0.00 in Rain Light Rain
2:18 AM 75.2 °F - 73.4 °F 94% 29.95 in 10.0 mi WSW 5.8 mph - N/A   Mostly Cloudy
2:28 AM 75.2 °F - 73.4 °F 94% 29.95 in 10.0 mi WSW 4.6 mph - N/A   Scattered Clouds
2:58 AM 75.0 °F - 73.0 °F 94% 29.95 in 10.0 mi West 3.5 mph - 0.00 in   Mostly Cloudy
3:58 AM 74.7 °F - 72.5 °F 93% 29.95 in 10.0 mi Calm Calm - N/A   Clear
4:53 AM 73.4 °F - 73.4 °F 100% 29.94 in 10.0 mi Calm Calm - N/A   Overcast
4:58 AM 73.4 °F - 73.4 °F 100% 29.95 in 10.0 mi Variable 2.3 mph - N/A   Overcast
5:03 AM 73.4 °F - 73.4 °F 100% 29.94 in 10.0 mi SE 3.5 mph - N/A   Overcast
5:28 AM 73.4 °F - 73.4 °F 100% 29.94 in 10.0 mi Calm Calm - N/A   Overcast
5:58 AM 73.4 °F - 73.4 °F 100% 29.96 in 10.0 mi ESE 3.5 mph - N/A   Overcast
6:03 AM 73.4 °F - 73.4 °F 100% 29.95 in 8.0 mi North 1.2 mph - N/A   Overcast
6:08 AM 73.4 °F - 73.4 °F 100% 29.95 in 7.0 mi ESE 2.3 mph - N/A   Overcast
6:23 AM 73.4 °F - 73.4 °F 100% 29.96 in 10.0 mi Calm Calm - N/A   Overcast
6:58 AM 73.9 °F - 72.5 °F 95% 29.97 in 10.0 mi South 2.3 mph - N/A   Overcast
7:58 AM 73.9 °F - 72.7 °F 96% 29.99 in 3.0 mi South 4.6 mph - N/A   Overcast
8:58 AM 75.2 °F - 73.4 °F 94% 30.00 in 10.0 mi SSW 3.5 mph - N/A   Overcast
9:28 AM 75.2 °F - 73.4 °F 94% 29.99 in 10.0 mi SSW 3.5 mph - N/A   Overcast
9:58 AM 76.5 °F - 73.4 °F 90% 30.00 in 10.0 mi SW 2.3 mph - N/A   Overcast
10:08 AM 77.0 °F - 73.4 °F 89% 29.99 in 10.0 mi SSW 4.6 mph - N/A   Overcast
10:58 AM 77.7 °F - 73.6 °F 87% 30.00 in 10.0 mi Variable 2.3 mph - N/A   Overcast
11:23 AM 78.8 °F - 73.4 °F 83% 30.00 in 10.0 mi WNW 3.5 mph - N/A   Overcast
11:33 AM 78.8 °F - 73.4 °F 83% 30.00 in 10.0 mi WNW 3.5 mph - N/A   Overcast
11:58 AM 79.0 °F - 73.2 °F 82% 30.01 in 10.0 mi Calm Calm - N/A   Overcast
12:33 PM 80.6 °F 85.4 °F 73.4 °F 79% 30.00 in 10.0 mi Calm Calm - N/A   Overcast
12:48 PM 82.4 °F 88.2 °F 73.4 °F 74% 30.00 in 10.0 mi Calm Calm - N/A   Overcast
12:58 PM 81.9 °F 87.0 °F 72.9 °F 74% 30.00 in 10.0 mi Variable 1.2 mph - N/A   Overcast
1:43 PM 84.2 °F 90.9 °F 73.4 °F 70% 29.97 in 10.0 mi East 2.3 mph - N/A   Mostly Cloudy
1:58 PM 84.6 °F 91.4 °F 73.2 °F 69% 29.97 in 10.0 mi SE 4.6 mph - N/A   Scattered Clouds
2:38 PM 84.2 °F 90.9 °F 73.4 °F 70% 29.94 in 10.0 mi East 5.8 mph - N/A   Mostly Cloudy
2:43 PM 84.2 °F 89.6 °F 71.6 °F 66% 29.94 in 10.0 mi Variable 5.8 mph - N/A   Overcast
2:58 PM 85.1 °F 91.8 °F 72.9 °F 67% 29.94 in 10.0 mi SE 5.8 mph - N/A   Overcast
3:58 PM 83.5 °F 90.3 °F 74.1 °F 73% 29.92 in 10.0 mi South 4.6 mph - N/A   Scattered Clouds
4:28 PM 82.4 °F 88.2 °F 73.4 °F 74% 29.90 in 10.0 mi South 6.9 mph - N/A   Mostly Cloudy
4:38 PM 82.4 °F 88.2 °F 73.4 °F 74% 29.90 in 10.0 mi South 8.1 mph - N/A   Scattered Clouds
4:58 PM 81.9 °F 87.3 °F 73.4 °F 75% 29.91 in 10.0 mi South 4.6 mph - N/A   Partly Cloudy
5:48 PM 80.6 °F 85.4 °F 73.4 °F 79% 29.92 in 10.0 mi SSW 5.8 mph - N/A   Mostly Cloudy
5:58 PM 80.8 °F 85.8 °F 73.6 °F 79% 29.92 in 10.0 mi SW 6.9 mph - N/A   Mostly Cloudy
6:08 PM 80.6 °F 85.4 °F 73.4 °F 79% 29.92 in 10.0 mi SW 6.9 mph - N/A   Overcast
6:58 PM 79.2 °F - 73.8 °F 83% 29.93 in 10.0 mi SSW 5.8 mph - N/A   Overcast
7:58 PM 78.1 °F - 73.6 °F 86% 29.94 in 10.0 mi Calm Calm - N/A   Overcast
8:38 PM 77.0 °F - 73.4 °F 89% 29.95 in 10.0 mi West 4.6 mph - N/A   Overcast
8:53 PM 77.0 °F - 73.4 °F 89% 29.95 in 9.0 mi West 4.6 mph - N/A   Overcast
8:58 PM 77.5 °F - 73.8 °F 88% 29.96 in 10.0 mi WSW 3.5 mph - N/A   Overcast
9:03 PM 77.0 °F - 73.4 °F 89% 29.95 in 10.0 mi Calm Calm - N/A   Overcast
9:08 PM 77.0 °F - 73.4 °F 89% 29.96 in 10.0 mi SW 2.3 mph - N/A   Overcast
9:13 PM 77.0 °F - 73.4 °F 89% 29.96 in 10.0 mi Calm Calm - N/A   Overcast
9:33 PM 77.0 °F - 73.4 °F 89% 29.97 in 9.0 mi Calm Calm - N/A   Overcast
9:58 PM 77.5 °F - 73.9 °F 89% 29.98 in 10.0 mi SW 4.6 mph - N/A   Overcast
10:03 PM 77.0 °F - 73.4 °F 89% 29.97 in 10.0 mi SSW 5.8 mph - N/A   Overcast
10:48 PM 77.0 °F - 73.4 °F 89% 29.98 in 10.0 mi SW 8.1 mph - N/A   Overcast
10:58 PM 77.0 °F - 73.4 °F 89% 29.99 in 10.0 mi SW 8.1 mph - N/A   Overcast
11:08 PM 77.0 °F - 73.4 °F 89% 29.97 in 7.0 mi South 5.8 mph - N/A   Overcast
11:18 PM 77.0 °F - 73.4 °F 89% 29.97 in 6.0 mi South 8.1 mph - N/A   Scattered Clouds
11:43 PM 75.2 °F - 73.4 °F 94% 29.97 in 4.0 mi South 4.6 mph - N/A   Mostly Cloudy
11:58 PM 75.2 °F - 73.4 °F 94% 29.99 in 4.0 mi South 4.6 mph - N/A   Overcast